TimeGMT,TemperatureF,Dew PointF,Humidity,Sea Level PressureIn,VisibilityMPH,Wind Direction,Wind SpeedMPH,Gust SpeedMPH,PrecipitationIn,Events,Conditions,WindDirDegrees,DateUTC
6:20 AM,44.6,42.8,93,30.21,6.2,Variable,3.5,-,N/A,,Scattered Clouds,0,2012-11-15 06:20:00
6:50 AM,48.2,44.6,87,30.21,6.2,WSW,3.5,-,N/A,,Mostly Cloudy,240,2012-11-15 06:50:00
7:20 AM,46.4,42.8,87,30.21,6.2,SW,1.2,-,N/A,,Mostly Cloudy,230,2012-11-15 07:20:00
7:50 AM,46.4,44.6,93,30.21,6.2,Calm,Calm,-,N/A,,Mostly Cloudy,0,2012-11-15 07:50:00
8:20 AM,48.2,44.6,87,30.21,6.2,South,3.5,-,N/A,,Mostly Cloudy,190,2012-11-15 08:20:00
8:50 AM,48.2,46.4,93,30.21,6.2,South,5.8,-,N/A,,Mostly Cloudy,190,2012-11-15 08:50:00
9:20 AM,48.2,46.4,93,30.21,6.2,South,5.8,-,N/A,,Mostly Cloudy,190,2012-11-15 09:20:00
9:50 AM,50.0,46.4,87,30.21,6.2,South,5.8,-,N/A,,Mostly Cloudy,180,2012-11-15 09:50:00
10:20 AM,50.0,46.4,87,30.18,6.2,South,8.1,-,N/A,,Mostly Cloudy,190,2012-11-15 10:20:00
10:50 AM,50.0,46.4,87,30.18,6.2,South,8.1,-,N/A,,Mostly Cloudy,190,2012-11-15 10:50:00
11:20 AM,50.0,46.4,87,30.18,5.6,South,9.2,-,N/A,,Mostly Cloudy,180,2012-11-15 11:20:00
11:50 AM,51.8,46.4,82,30.15,3.7,SSW,9.2,-,N/A,,Mostly Cloudy,200,2012-11-15 11:50:00
12:20 PM,53.6,48.2,82,30.15,5.0,SSW,10.4,-,N/A,,Scattered Clouds,200,2012-11-15 12:20:00
12:50 PM,53.6,48.2,82,30.15,5.0,SSW,10.4,-,N/A,,Partly Cloudy,200,2012-11-15 12:50:00
1:20 PM,55.4,46.4,72,30.15,5.0,South,8.1,-,N/A,,Scattered Clouds,190,2012-11-15 13:20:00
1:50 PM,53.6,46.4,77,30.12,4.3,South,10.4,-,N/A,,Scattered Clouds,180,2012-11-15 13:50:00
2:20 PM,51.8,48.2,88,30.12,4.3,South,8.1,-,N/A,,Mostly Cloudy,170,2012-11-15 14:20:00
2:50 PM,51.8,46.4,82,30.09,4.3,South,6.9,-,N/A,,Mostly Cloudy,170,2012-11-15 14:50:00
3:20 PM,51.8,46.4,82,30.09,5.0,South,8.1,-,N/A,,Mostly Cloudy,180,2012-11-15 15:20:00
3:50 PM,51.8,46.4,82,30.09,5.0,South,9.2,-,N/A,,Mostly Cloudy,170,2012-11-15 15:50:00
4:20 PM,51.8,46.4,82,30.09,4.3,South,5.8,-,N/A,,Mostly Cloudy,170,2012-11-15 16:20:00
4:50 PM,51.8,46.4,82,30.09,4.3,South,6.9,-,N/A,,Mostly Cloudy,170,2012-11-15 16:50:00
5:20 PM,51.8,46.4,82,30.09,5.0,SSE,4.6,-,N/A,,Mostly Cloudy,150,2012-11-15 17:20:00
5:50 PM,51.8,46.4,82,30.09,5.0,Variable,3.5,-,N/A,,Mostly Cloudy,0,2012-11-15 17:50:00
6:20 PM,51.8,46.4,82,30.09,5.0,SSW,5.8,-,N/A,,Mostly Cloudy,210,2012-11-15 18:20:00
6:50 PM,51.8,46.4,82,30.06,5.0,SSW,4.6,-,N/A,,Mostly Cloudy,200,2012-11-15 18:50:00
7:20 PM,50.0,46.4,87,30.06,5.0,SSE,4.6,-,N/A,,Mostly Cloudy,160,2012-11-15 19:20:00
7:50 PM,50.0,46.4,87,30.06,3.7,South,11.5,-,N/A,,Mostly Cloudy,180,2012-11-15 19:50:00
8:20 PM,50.0,46.4,87,30.06,3.7,South,8.1,-,N/A,,Scattered Clouds,180,2012-11-15 20:20:00
8:50 PM,48.2,44.6,87,30.06,3.7,South,8.1,-,N/A,,Partly Cloudy,190,2012-11-15 20:50:00
9:20 PM,46.4,44.6,93,30.06,3.7,SSW,8.1,-,N/A,,Partly Cloudy,200,2012-11-15 21:20:00
9:50 PM,44.6,42.8,93,30.04,3.1,SSW,8.1,-,N/A,,Unknown,200,2012-11-15 21:50:00